Time,TemperatureF,DewpointF,PressureIn,WindDirection,WindDirectionDegrees,WindSpeedMPH,WindSpeedGustMPH,Humidity,HourlyPrecipIn,Conditions,Clouds,dailyrainin,SoftwareType,DateUTC
2013-02-20 00:00:00,38.5,28.4,29.64,North,0,0.0,0.0,67,0.00,,,0.09,WUHU216HW,2013-02-20 05:00:00,
2013-02-20 00:01:00,38.5,28.4,29.64,North,0,0.0,0.0,67,0.00,,,0.09,WUHU216HW,2013-02-20 05:01:00,
2013-02-20 00:06:00,38.3,28.3,29.64,North,0,0.0,0.0,67,0.00,,,0.00,WUHU216HW,2013-02-20 05:06:00,
2013-02-20 00:11:00,38.0,27.6,29.64,North,0,0.0,0.0,66,0.00,,,0.00,WUHU216HW,2013-02-20 05:11:00,
2013-02-20 00:16:00,37.8,27.8,29.64,North,0,0.0,0.0,67,0.00,,,0.00,WUHU216HW,2013-02-20 05:16:00,
2013-02-20 00:21:00,37.8,27.8,29.64,North,0,0.0,0.0,67,0.00,,,0.00,WUHU216HW,2013-02-20 05:21:00,
2013-02-20 00:26:00,37.6,26.9,29.64,North,0,0.0,0.0,65,0.00,,,0.00,WUHU216HW,2013-02-20 05:26:00,
2013-02-20 00:31:00,37.6,27.3,29.65,North,0,0.0,0.0,66,0.00,,,0.00,WUHU216HW,2013-02-20 05:31:00,
2013-02-20 00:36:00,37.4,26.4,29.65,North,0,0.0,0.0,64,0.00,,,0.00,WUHU216HW,2013-02-20 05:36:00,
2013-02-20 00:41:00,37.6,26.6,29.65,North,0,0.0,0.0,64,0.00,,,0.00,WUHU216HW,2013-02-20 05:41:00,
2013-02-20 00:46:00,37.4,26.4,29.65,North,0,0.0,0.0,64,0.00,,,0.00,WUHU216HW,2013-02-20 05:46:00,
2013-02-20 00:51:00,37.4,26.7,29.65,North,0,0.0,0.0,65,0.00,,,0.00,WUHU216HW,2013-02-20 05:51:00,
2013-02-20 00:56:00,37.4,26.0,29.65,North,0,0.0,0.0,63,0.00,,,0.00,WUHU216HW,2013-02-20 05:56:00,
2013-02-20 01:01:00,37.4,26.0,29.66,North,0,0.0,0.0,63,0.00,,,0.00,WUHU216HW,2013-02-20 06:01:00,
2013-02-20 01:06:00,37.4,26.0,29.66,North,0,0.0,0.0,63,0.00,,,0.00,WUHU216HW,2013-02-20 06:06:00,
2013-02-20 01:11:00,37.4,25.6,29.66,North,0,0.0,0.0,62,0.00,,,0.00,WUHU216HW,2013-02-20 06:11:00,
2013-02-20 01:16:00,37.4,25.2,29.66,North,0,0.0,0.0,61,0.00,,,0.00,WUHU216HW,2013-02-20 06:16:00,
2013-02-20 01:21:00,37.6,25.0,29.66,North,0,0.0,0.0,60,0.00,,,0.00,WUHU216HW,2013-02-20 06:21:00,
2013-02-20 01:26:00,37.4,24.8,29.66,North,0,0.0,0.0,60,0.00,,,0.00,WUHU216HW,2013-02-20 06:26:00,
2013-02-20 01:31:00,37.4,24.8,29.66,North,0,0.0,0.0,60,0.00,,,0.00,WUHU216HW,2013-02-20 06:31:00,
2013-02-20 01:36:00,37.3,25.0,29.67,North,0,0.0,0.0,61,0.00,,,0.00,WUHU216HW,2013-02-20 06:36:00,
2013-02-20 01:41:00,37.3,24.7,29.67,North,0,0.0,0.0,60,0.00,,,0.00,WUHU216HW,2013-02-20 06:41:00,
2013-02-20 01:46:00,37.4,24.8,29.67,North,0,0.0,0.0,60,0.00,,,0.00,WUHU216HW,2013-02-20 06:46:00,
2013-02-20 01:52:00,37.4,24.8,29.67,North,0,0.0,0.0,60,0.00,,,0.00,WUHU216HW,2013-02-20 06:52:00,
2013-02-20 01:57:00,37.3,23.9,29.67,North,0,0.0,0.0,58,0.00,,,0.00,WUHU216HW,2013-02-20 06:57:00,
2013-02-20 02:02:00,37.3,24.2,29.67,North,0,0.0,0.0,59,0.00,,,0.00,WUHU216HW,2013-02-20 07:02:00,
2013-02-20 02:07:00,37.4,23.6,29.67,North,0,0.0,0.0,57,0.00,,,0.00,WUHU216HW,2013-02-20 07:07:00,
2013-02-20 02:12:00,37.4,23.6,29.67,North,0,0.0,0.0,57,0.00,,,0.00,WUHU216HW,2013-02-20 07:12:00,
2013-02-20 02:17:00,37.3,23.9,29.67,North,0,0.0,0.0,58,0.00,,,0.00,WUHU216HW,2013-02-20 07:17:00,
2013-02-20 02:22:00,37.1,23.7,29.67,North,0,0.0,0.0,58,0.00,,,0.00,WUHU216HW,2013-02-20 07:22:00,
2013-02-20 02:27:00,37.1,23.7,29.67,North,0,0.0,0.0,58,0.00,,,0.00,WUHU216HW,2013-02-20 07:27:00,
2013-02-20 02:32:00,37.1,23.2,29.67,North,0,0.0,0.0,57,0.00,,,0.00,WUHU216HW,2013-02-20 07:32:00,
2013-02-20 02:37:00,36.9,23.0,29.67,North,0,0.0,0.0,57,0.00,,,0.00,WUHU216HW,2013-02-20 07:37:00,
2013-02-20 02:42:00,36.9,23.5,29.67,North,0,0.0,0.0,58,0.00,,,0.00,WUHU216HW,2013-02-20 07:42:00,
2013-02-20 02:47:00,36.7,23.8,29.68,North,0,0.0,0.0,59,0.00,,,0.00,WUHU216HW,2013-02-20 07:47:00,
2013-02-20 02:52:00,36.5,23.6,29.68,North,0,0.0,0.0,59,0.00,,,0.00,WUHU216HW,2013-02-20 07:52:00,
2013-02-20 02:57:00,36.4,23.9,29.68,North,0,0.0,0.0,60,0.00,,,0.00,WUHU216HW,2013-02-20 07:57:00,
2013-02-20 03:00:00,36.0,23.6,29.68,North,0,0.0,0.0,60,0.00,,,0.00,WUHU216HW,2013-02-20 08:00:00,
2013-02-20 03:05:00,36.0,23.6,29.68,North,0,0.0,0.0,60,0.00,,,0.00,WUHU216HW,2013-02-20 08:05:00,
2013-02-20 03:10:00,36.0,23.6,29.69,North,0,0.0,0.0,60,0.00,,,0.00,WUHU216HW,2013-02-20 08:10:00,
2013-02-20 03:15:00,36.0,23.6,29.68,North,0,0.0,0.0,60,0.00,,,0.00,WUHU216HW,2013-02-20 08:15:00,
2013-02-20 03:20:00,36.0,23.6,29.68,North,0,0.0,0.0,60,0.00,,,0.00,WUHU216HW,2013-02-20 08:20:00,
2013-02-20 03:25:00,36.0,23.6,29.68,North,0,0.0,0.0,60,0.00,,,0.00,WUHU216HW,2013-02-20 08:25:00,
2013-02-20 03:30:00,36.0,23.6,29.68,North,0,0.0,0.0,60,0.00,,,0.00,WUHU216HW,2013-02-20 08:30:00,
2013-02-20 03:35:00,36.0,23.1,29.69,North,0,0.0,0.0,59,0.00,,,0.00,WUHU216HW,2013-02-20 08:35:00,
2013-02-20 03:40:00,36.0,23.6,29.69,North,0,0.0,0.0,60,0.00,,,0.00,WUHU216HW,2013-02-20 08:40:00,
2013-02-20 03:45:00,35.6,23.2,29.69,North,0,0.0,0.0,60,0.00,,,0.00,WUHU216HW,2013-02-20 08:45:00,
2013-02-20 03:50:00,35.5,22.6,29.69,North,0,0.0,0.0,59,0.00,,,0.00,WUHU216HW,2013-02-20 08:50:00,
2013-02-20 03:55:00,35.6,22.8,29.69,North,0,0.0,0.0,59,0.00,,,0.00,WUHU216HW,2013-02-20 08:55:00,
2013-02-20 04:00:00,35.5,22.1,29.70,North,0,0.0,0.0,58,0.00,,,0.00,WUHU216HW,2013-02-20 09:00:00,
2013-02-20 04:05:00,35.5,22.1,29.70,North,0,0.0,0.0,58,0.00,,,0.00,WUHU216HW,2013-02-20 09:05:00,
2013-02-20 04:10:00,35.3,22.0,29.70,North,0,0.0,0.0,58,0.00,,,0.00,WUHU216HW,2013-02-20 09:10:00,
2013-02-20 04:15:00,35.1,22.2,29.70,North,0,0.0,0.0,59,0.00,,,0.00,WUHU216HW,2013-02-20 09:15:00,
2013-02-20 04:20:00,34.9,21.3,29.70,North,0,0.0,0.0,57,0.00,,,0.00,WUHU216HW,2013-02-20 09:20:00,
2013-02-20 04:25:00,34.7,20.6,29.70,North,0,0.0,0.0,56,0.00,,,0.00,WUHU216HW,2013-02-20 09:25:00,
2013-02-20 04:30:00,34.7,20.6,29.70,North,0,0.0,0.0,56,0.00,,,0.00,WUHU216HW,2013-02-20 09:30:00,
2013-02-20 04:35:00,34.6,20.4,29.71,North,0,0.0,0.0,56,0.00,,,0.00,WUHU216HW,2013-02-20 09:35:00,
2013-02-20 04:40:00,34.6,20.4,29.71,North,0,0.0,0.0,56,0.00,,,0.00,WUHU216HW,2013-02-20 09:40:00,
2013-02-20 04:45:00,34.4,20.3,29.71,North,0,0.0,0.0,56,0.00,,,0.00,WUHU216HW,2013-02-20 09:45:00,
2013-02-20 04:50:00,34.2,20.1,29.72,North,0,0.0,0.0,56,0.00,,,0.00,WUHU216HW,2013-02-20 09:50:00,
2013-02-20 04:55:00,34.0,19.9,29.72,North,0,0.0,0.0,56,0.00,,,0.00,WUHU216HW,2013-02-20 09:55:00,
2013-02-20 05:00:00,33.7,20.0,29.72,North,0,0.0,0.0,57,0.00,,,0.00,WUHU216HW,2013-02-20 10:00:00,
2013-02-20 05:05:00,33.5,19.8,29.72,North,0,0.0,0.0,57,0.00,,,0.00,WUHU216HW,2013-02-20 10:05:00,
2013-02-20 05:10:00,33.5,19.4,29.72,North,0,0.0,0.0,56,0.00,,,0.00,WUHU216HW,2013-02-20 10:10:00,
2013-02-20 05:15:00,33.5,19.8,29.72,North,0,0.0,0.0,57,0.00,,,0.00,WUHU216HW,2013-02-20 10:15:00,
2013-02-20 05:20:00,33.3,19.2,29.72,North,0,0.0,0.0,56,0.00,,,0.00,WUHU216HW,2013-02-20 10:20:00,
2013-02-20 05:25:00,33.1,19.4,29.72,North,0,0.0,0.0,57,0.00,,,0.00,WUHU216HW,2013-02-20 10:25:00,
2013-02-20 05:30:00,33.1,19.4,29.73,North,0,0.0,0.0,57,0.00,,,0.00,WUHU216HW,2013-02-20 10:30:00,
2013-02-20 05:35:00,32.8,19.6,29.73,North,0,0.0,0.0,58,0.00,,,0.00,WUHU216HW,2013-02-20 10:35:00,
2013-02-20 05:40:00,32.8,19.6,29.73,North,0,0.0,0.0,58,0.00,,,0.00,WUHU216HW,2013-02-20 10:40:00,
2013-02-20 05:45:00,32.8,19.6,29.73,North,0,0.0,0.0,58,0.00,,,0.00,WUHU216HW,2013-02-20 10:45:00,
2013-02-20 05:50:00,32.8,19.2,29.73,North,0,0.0,0.0,57,0.00,,,0.00,WUHU216HW,2013-02-20 10:50:00,
2013-02-20 05:55:00,32.9,18.9,29.74,North,0,0.0,0.0,56,0.00,,,0.00,WUHU216HW,2013-02-20 10:55:00,
2013-02-20 06:00:00,32.9,18.9,29.74,North,0,0.0,0.0,56,0.00,,,0.00,WUHU216HW,2013-02-20 11:00:00,
2013-02-20 06:05:00,32.8,18.7,29.75,North,0,0.0,0.0,56,0.00,,,0.00,WUHU216HW,2013-02-20 11:05:00,
2013-02-20 06:10:00,32.8,18.7,29.75,North,0,0.0,0.0,56,0.00,,,0.00,WUHU216HW,2013-02-20 11:10:00,
2013-02-20 06:15:00,32.9,18.9,29.75,North,0,0.0,0.0,56,0.00,,,0.00,WUHU216HW,2013-02-20 11:15:00,
2013-02-20 06:20:00,32.8,18.7,29.75,North,0,0.0,0.0,56,0.00,,,0.00,WUHU216HW,2013-02-20 11:20:00,
2013-02-20 06:25:00,32.9,18.5,29.76,North,0,0.0,0.0,55,0.00,,,0.00,WUHU216HW,2013-02-20 11:25:00,
2013-02-20 06:30:00,32.9,18.9,29.76,North,0,0.0,0.0,56,0.00,,,0.00,WUHU216HW,2013-02-20 11:30:00,
2013-02-20 06:35:00,32.8,18.7,29.76,North,0,0.0,0.0,56,0.00,,,0.00,WUHU216HW,2013-02-20 11:35:00,
2013-02-20 06:40:00,32.6,18.5,29.77,North,0,0.0,0.0,56,0.00,,,0.00,WUHU216HW,2013-02-20 11:40:00,
2013-02-20 06:45:00,32.6,18.1,29.77,North,0,0.0,0.0,55,0.00,,,0.00,WUHU216HW,2013-02-20 11:45:00,
2013-02-20 06:50:00,32.4,18.0,29.77,North,0,0.0,0.0,55,0.00,,,0.00,WUHU216HW,2013-02-20 11:50:00,
2013-02-20 06:55:00,32.4,18.0,29.77,North,0,0.0,0.0,55,0.00,,,0.00,WUHU216HW,2013-02-20 11:55:00,
2013-02-20 07:00:00,32.4,17.6,29.78,North,0,0.0,0.0,54,0.00,,,0.00,WUHU216HW,2013-02-20 12:00:00,
2013-02-20 07:05:00,32.2,17.4,29.78,North,0,0.0,0.0,54,0.00,,,0.00,WUHU216HW,2013-02-20 12:05:00,
2013-02-20 07:10:00,32.0,17.6,29.78,North,0,0.0,0.0,55,0.00,,,0.00,WUHU216HW,2013-02-20 12:10:00,
2013-02-20 07:15:00,32.0,16.7,29.78,North,0,0.0,0.0,53,0.00,,,0.00,WUHU216HW,2013-02-20 12:15:00,
2013-02-20 07:20:00,32.0,17.2,29.78,North,0,0.0,0.0,54,0.00,,,0.00,WUHU216HW,2013-02-20 12:20:00,
2013-02-20 07:25:00,32.0,16.7,29.78,North,0,0.0,0.0,53,0.00,,,0.00,WUHU216HW,2013-02-20 12:25:00,
2013-02-20 07:30:00,32.0,17.2,29.79,North,0,0.0,0.0,54,0.00,,,0.00,WUHU216HW,2013-02-20 12:30:00,
2013-02-20 07:36:00,32.0,17.2,29.79,North,0,0.0,0.0,54,0.00,,,0.00,WUHU216HW,2013-02-20 12:36:00,
2013-02-20 07:41:00,32.0,17.6,29.79,North,0,0.0,0.0,55,0.00,,,0.00,WUHU216HW,2013-02-20 12:41:00,
2013-02-20 07:46:00,32.2,17.4,29.79,North,0,0.0,0.0,54,0.00,,,0.00,WUHU216HW,2013-02-20 12:46:00,
2013-02-20 07:51:00,32.4,17.6,29.80,North,0,0.0,0.0,54,0.00,,,0.00,WUHU216HW,2013-02-20 12:51:00,
2013-02-20 07:56:00,32.6,18.1,29.80,North,0,0.0,0.0,55,0.00,,,0.00,WUHU216HW,2013-02-20 12:56:00,
2013-02-20 08:01:00,32.8,17.8,29.80,North,0,0.0,0.0,54,0.00,,,0.00,WUHU216HW,2013-02-20 13:01:00,
2013-02-20 08:06:00,32.9,18.0,29.80,North,0,0.0,0.0,54,0.00,,,0.00,WUHU216HW,2013-02-20 13:06:00,
2013-02-20 08:11:00,32.9,18.0,29.80,North,0,0.0,0.0,54,0.00,,,0.00,WUHU216HW,2013-02-20 13:11:00,
2013-02-20 08:16:00,32.9,18.0,29.80,North,0,0.0,0.0,54,0.00,,,0.00,WUHU216HW,2013-02-20 13:16:00,
2013-02-20 08:21:00,32.8,17.8,29.80,North,0,0.0,0.0,54,0.00,,,0.00,WUHU216HW,2013-02-20 13:21:00,
2013-02-20 08:26:00,32.9,18.0,29.80,North,0,0.0,0.0,54,0.00,,,0.00,WUHU216HW,2013-02-20 13:26:00,
2013-02-20 08:31:00,32.9,18.0,29.81,North,0,0.0,0.0,54,0.00,,,0.00,WUHU216HW,2013-02-20 13:31:00,
2013-02-20 08:36:00,32.9,18.0,29.80,North,0,0.0,0.0,54,0.00,,,0.00,WUHU216HW,2013-02-20 13:36:00,
2013-02-20 08:41:00,33.1,18.6,29.81,North,0,0.0,0.0,55,0.00,,,0.00,WUHU216HW,2013-02-20 13:41:00,
2013-02-20 08:46:00,33.3,18.8,29.81,North,0,0.0,0.0,55,0.00,,,0.00,WUHU216HW,2013-02-20 13:46:00,
2013-02-20 08:51:00,33.7,19.1,29.81,North,0,0.0,0.0,55,0.00,,,0.00,WUHU216HW,2013-02-20 13:51:00,
2013-02-20 08:56:00,34.0,19.4,29.81,North,0,0.0,0.0,55,0.00,,,0.00,WUHU216HW,2013-02-20 13:56:00,
2013-02-20 09:01:00,34.2,19.2,29.81,North,0,0.0,0.0,54,0.00,,,0.00,WUHU216HW,2013-02-20 14:01:00,
2013-02-20 09:06:00,34.2,18.7,29.81,North,0,0.0,0.0,53,0.00,,,0.00,WUHU216HW,2013-02-20 14:06:00,
2013-02-20 09:11:00,34.2,19.2,29.81,North,0,0.0,0.0,54,0.00,,,0.00,WUHU216HW,2013-02-20 14:11:00,
2013-02-20 09:16:00,34.2,19.2,29.81,North,0,0.0,0.0,54,0.00,,,0.00,WUHU216HW,2013-02-20 14:16:00,
2013-02-20 09:21:00,34.2,19.2,29.81,North,0,0.0,0.0,54,0.00,,,0.00,WUHU216HW,2013-02-20 14:21:00,
2013-02-20 09:26:00,34.2,19.2,29.81,North,0,0.0,0.0,54,0.00,,,0.00,WUHU216HW,2013-02-20 14:26:00,
2013-02-20 09:31:00,34.4,18.9,29.81,North,0,0.0,0.0,53,0.00,,,0.00,WUHU216HW,2013-02-20 14:31:00,
2013-02-20 09:36:00,34.4,18.6,29.81,North,0,0.0,0.0,52,0.00,,,0.00,WUHU216HW,2013-02-20 14:36:00,
2013-02-20 09:41:00,34.7,19.3,29.81,North,0,0.0,0.0,53,0.00,,,0.00,WUHU216HW,2013-02-20 14:41:00,
2013-02-20 09:46:00,34.9,19.1,29.81,North,0,0.0,0.0,52,0.00,,,0.00,WUHU216HW,2013-02-20 14:46:00,
2013-02-20 09:51:00,35.5,19.2,29.81,North,0,0.0,0.0,51,0.00,,,0.00,WUHU216HW,2013-02-20 14:51:00,
2013-02-20 09:56:00,35.8,19.5,29.81,North,0,0.0,0.0,51,0.00,,,0.00,WUHU216HW,2013-02-20 14:56:00,
2013-02-20 10:01:00,35.6,18.9,29.82,North,0,0.0,0.0,50,0.00,,,0.00,WUHU216HW,2013-02-20 15:01:00,
2013-02-20 10:06:00,35.6,18.9,29.82,North,0,0.0,0.0,50,0.00,,,0.00,WUHU216HW,2013-02-20 15:06:00,
2013-02-20 10:11:00,35.5,18.2,29.82,North,0,0.0,0.0,49,0.00,,,0.00,WUHU216HW,2013-02-20 15:11:00,
2013-02-20 10:16:00,35.5,18.2,29.82,North,0,0.0,0.0,49,0.00,,,0.00,WUHU216HW,2013-02-20 15:16:00,
2013-02-20 10:21:00,35.3,17.5,29.82,North,0,0.0,0.0,48,0.00,,,0.00,WUHU216HW,2013-02-20 15:21:00,
2013-02-20 10:26:00,35.3,18.5,29.82,North,0,0.0,0.0,50,0.00,,,0.00,WUHU216HW,2013-02-20 15:26:00,
2013-02-20 10:31:00,35.6,18.9,29.82,North,0,0.0,0.0,50,0.00,,,0.00,WUHU216HW,2013-02-20 15:31:00,
2013-02-20 10:36:00,35.8,19.1,29.82,North,0,0.0,0.0,50,0.00,,,0.00,WUHU216HW,2013-02-20 15:36:00,
2013-02-20 10:41:00,36.4,19.0,29.82,North,0,0.0,0.0,49,0.00,,,0.00,WUHU216HW,2013-02-20 15:41:00,
2013-02-20 10:46:00,36.4,18.6,29.82,North,0,0.0,0.0,48,0.00,,,0.00,WUHU216HW,2013-02-20 15:46:00,
2013-02-20 10:51:00,36.0,18.2,29.82,North,0,0.0,0.0,48,0.00,,,0.00,WUHU216HW,2013-02-20 15:51:00,
2013-02-20 10:56:00,35.5,17.6,29.82,North,0,0.0,0.0,48,0.00,,,0.00,WUHU216HW,2013-02-20 15:56:00,
2013-02-20 11:01:00,35.5,17.6,29.82,North,0,0.0,0.0,48,0.00,,,0.00,WUHU216HW,2013-02-20 16:01:00,
2013-02-20 11:07:00,35.6,17.8,29.82,North,0,0.0,0.0,48,0.00,,,0.00,WUHU216HW,2013-02-20 16:07:00,
2013-02-20 11:12:00,36.0,18.7,29.82,North,0,0.0,0.0,49,0.00,,,0.00,WUHU216HW,2013-02-20 16:12:00,
2013-02-20 11:17:00,36.9,19.5,29.82,North,0,0.0,0.0,49,0.00,,,0.00,WUHU216HW,2013-02-20 16:17:00,
2013-02-20 11:22:00,37.4,18.5,29.82,North,0,0.0,0.0,46,0.00,,,0.00,WUHU216HW,2013-02-20 16:22:00,
2013-02-20 11:27:00,37.4,19.0,29.82,North,0,0.0,0.0,47,0.00,,,0.00,WUHU216HW,2013-02-20 16:27:00,
2013-02-20 11:32:00,37.8,19.8,29.82,North,0,0.0,0.0,48,0.00,,,0.00,WUHU216HW,2013-02-20 16:32:00,
2013-02-20 11:37:00,38.5,19.9,29.82,North,0,0.0,0.0,47,0.00,,,0.00,WUHU216HW,2013-02-20 16:37:00,
2013-02-20 11:42:00,39.2,20.6,29.82,North,0,0.0,0.0,47,0.00,,,0.00,WUHU216HW,2013-02-20 16:42:00,
2013-02-20 11:47:00,38.7,19.5,29.82,North,0,0.0,0.0,46,0.00,,,0.00,WUHU216HW,2013-02-20 16:47:00,
2013-02-20 11:52:00,37.8,18.3,29.82,North,0,0.0,0.0,45,0.00,,,0.00,WUHU216HW,2013-02-20 16:52:00,
2013-02-20 11:57:00,38.2,19.1,29.82,North,0,0.0,0.0,46,0.00,,,0.00,WUHU216HW,2013-02-20 16:57:00,
2013-02-20 12:02:00,38.5,20.4,29.81,North,0,0.0,0.0,48,0.00,,,0.00,WUHU216HW,2013-02-20 17:02:00,
2013-02-20 12:07:00,38.5,20.4,29.81,North,0,0.0,0.0,48,0.00,,,0.00,WUHU216HW,2013-02-20 17:07:00,
2013-02-20 12:12:00,38.7,20.6,29.81,North,0,0.0,0.0,48,0.00,,,0.00,WUHU216HW,2013-02-20 17:12:00,
2013-02-20 12:17:00,38.9,20.3,29.82,North,0,0.0,0.0,47,0.00,,,0.00,WUHU216HW,2013-02-20 17:17:00,
2013-02-20 12:22:00,38.7,19.5,29.81,North,0,0.0,0.0,46,0.00,,,0.00,WUHU216HW,2013-02-20 17:22:00,
2013-02-20 12:27:00,39.2,21.1,29.81,North,0,0.0,0.0,48,0.00,,,0.00,WUHU216HW,2013-02-20 17:27:00,
2013-02-20 12:32:00,39.8,20.5,29.81,North,0,0.0,0.0,46,0.00,,,0.00,WUHU216HW,2013-02-20 17:32:00,
2013-02-20 12:37:00,39.8,21.1,29.81,North,0,0.0,0.0,47,0.00,,,0.00,WUHU216HW,2013-02-20 17:37:00,
2013-02-20 12:42:00,40.0,20.7,29.81,North,0,0.0,0.0,46,0.00,,,0.00,WUHU216HW,2013-02-20 17:42:00,
2013-02-20 12:47:00,39.4,19.7,29.81,North,0,0.0,0.0,45,0.00,,,0.00,WUHU216HW,2013-02-20 17:47:00,
2013-02-20 12:52:00,39.2,19.5,29.80,North,0,0.0,0.0,45,0.00,,,0.00,WUHU216HW,2013-02-20 17:52:00,
2013-02-20 12:57:00,39.1,19.9,29.80,North,0,0.0,0.0,46,0.00,,,0.00,WUHU216HW,2013-02-20 17:57:00,
2013-02-20 13:02:00,39.1,19.9,29.80,North,0,0.0,0.0,46,0.00,,,0.00,WUHU216HW,2013-02-20 18:02:00,
2013-02-20 13:07:00,39.2,20.1,29.80,North,0,0.0,0.0,46,0.00,,,0.00,WUHU216HW,2013-02-20 18:07:00,
2013-02-20 13:12:00,39.2,20.6,29.80,North,0,0.0,0.0,47,0.00,,,0.00,WUHU216HW,2013-02-20 18:12:00,
2013-02-20 13:17:00,39.2,20.6,29.80,North,0,0.0,0.0,47,0.00,,,0.00,WUHU216HW,2013-02-20 18:17:00,
2013-02-20 13:22:00,39.4,20.3,29.80,North,0,0.0,0.0,46,0.00,,,0.00,WUHU216HW,2013-02-20 18:22:00,
2013-02-20 13:27:00,38.9,20.3,29.80,North,0,0.0,0.0,47,0.00,,,0.00,WUHU216HW,2013-02-20 18:27:00,
2013-02-20 13:32:00,38.9,19.7,29.80,North,0,0.0,0.0,46,0.00,,,0.00,WUHU216HW,2013-02-20 18:32:00,
2013-02-20 13:37:00,39.6,22.0,29.80,North,0,0.0,0.0,49,0.00,,,0.00,WUHU216HW,2013-02-20 18:37:00,
2013-02-20 13:42:00,39.2,19.5,29.80,North,0,0.0,0.0,45,0.00,,,0.00,WUHU216HW,2013-02-20 18:42:00,
2013-02-20 13:47:00,39.2,20.6,29.80,North,0,0.0,0.0,47,0.00,,,0.00,WUHU216HW,2013-02-20 18:47:00,
2013-02-20 13:52:00,39.4,20.3,29.80,North,0,0.0,0.0,46,0.00,,,0.00,WUHU216HW,2013-02-20 18:52:00,
2013-02-20 13:58:00,39.4,20.3,29.80,North,0,0.0,0.0,46,0.00,,,0.00,WUHU216HW,2013-02-20 18:58:00,
2013-02-20 14:03:00,39.4,20.3,29.80,North,0,0.0,0.0,46,0.00,,,0.00,WUHU216HW,2013-02-20 19:03:00,
2013-02-20 14:08:00,39.1,19.4,29.80,North,0,0.0,0.0,45,0.00,,,0.00,WUHU216HW,2013-02-20 19:08:00,
2013-02-20 14:13:00,39.2,19.5,29.80,North,0,0.0,0.0,45,0.00,,,0.00,WUHU216HW,2013-02-20 19:13:00,
2013-02-20 14:18:00,39.4,19.7,29.80,North,0,0.0,0.0,45,0.00,,,0.00,WUHU216HW,2013-02-20 19:18:00,
2013-02-20 14:23:00,39.2,19.5,29.80,North,0,0.0,0.0,45,0.00,,,0.00,WUHU216HW,2013-02-20 19:23:00,
2013-02-20 14:28:00,39.2,19.5,29.80,North,0,0.0,0.0,45,0.00,,,0.00,WUHU216HW,2013-02-20 19:28:00,
2013-02-20 14:33:00,39.2,19.5,29.80,North,0,0.0,0.0,45,0.00,,,0.00,WUHU216HW,2013-02-20 19:33:00,
2013-02-20 14:38:00,38.9,19.2,29.80,North,0,0.0,0.0,45,0.00,,,0.00,WUHU216HW,2013-02-20 19:38:00,
2013-02-20 14:43:00,39.2,19.5,29.80,North,0,0.0,0.0,45,0.00,,,0.00,WUHU216HW,2013-02-20 19:43:00,
2013-02-20 14:48:00,39.2,19.5,29.80,North,0,0.0,0.0,45,0.00,,,0.00,WUHU216HW,2013-02-20 19:48:00,
2013-02-20 14:53:00,39.2,19.5,29.80,North,0,0.0,0.0,45,0.00,,,0.00,WUHU216HW,2013-02-20 19:53:00,
2013-02-20 14:58:00,39.2,19.0,29.80,North,0,0.0,0.0,44,0.00,,,0.00,WUHU216HW,2013-02-20 19:58:00,
2013-02-20 15:03:00,39.2,19.0,29.80,North,0,0.0,0.0,44,0.00,,,0.00,WUHU216HW,2013-02-20 20:03:00,
2013-02-20 15:08:00,39.2,19.0,29.80,North,0,0.0,0.0,44,0.00,,,0.00,WUHU216HW,2013-02-20 20:08:00,
2013-02-20 15:13:00,39.2,19.5,29.80,North,0,0.0,0.0,45,0.00,,,0.00,WUHU216HW,2013-02-20 20:13:00,
2013-02-20 15:18:00,39.4,19.2,29.80,North,0,0.0,0.0,44,0.00,,,0.00,WUHU216HW,2013-02-20 20:18:00,
2013-02-20 15:23:00,39.6,19.9,29.80,North,0,0.0,0.0,45,0.00,,,0.00,WUHU216HW,2013-02-20 20:23:00,
2013-02-20 15:28:00,39.8,19.5,29.80,North,0,0.0,0.0,44,0.00,,,0.00,WUHU216HW,2013-02-20 20:28:00,
2013-02-20 15:33:00,39.4,19.7,29.80,North,0,0.0,0.0,45,0.00,,,0.00,WUHU216HW,2013-02-20 20:33:00,
2013-02-20 15:38:00,39.4,19.2,29.80,North,0,0.0,0.0,44,0.00,,,0.00,WUHU216HW,2013-02-20 20:38:00,
2013-02-20 15:43:00,39.1,18.4,29.80,North,0,0.0,0.0,43,0.00,,,0.00,WUHU216HW,2013-02-20 20:43:00,
2013-02-20 15:48:00,39.2,19.0,29.81,North,0,0.0,0.0,44,0.00,,,0.00,WUHU216HW,2013-02-20 20:48:00,
2013-02-20 15:53:00,38.9,18.7,29.82,North,0,0.0,0.0,44,0.00,,,0.00,WUHU216HW,2013-02-20 20:53:00,
2013-02-20 15:58:00,38.7,18.0,29.82,North,0,0.0,0.0,43,0.00,,,0.00,WUHU216HW,2013-02-20 20:58:00,
2013-02-20 16:03:00,38.5,18.4,29.82,North,0,0.0,0.0,44,0.00,,,0.00,WUHU216HW,2013-02-20 21:03:00,
2013-02-20 16:08:00,38.5,18.4,29.82,North,0,0.0,0.0,44,0.00,,,0.00,WUHU216HW,2013-02-20 21:08:00,
2013-02-20 16:13:00,38.5,18.4,29.82,North,0,0.0,0.0,44,0.00,,,0.00,WUHU216HW,2013-02-20 21:13:00,
2013-02-20 16:18:00,38.5,18.4,29.82,North,0,0.0,0.0,44,0.00,,,0.00,WUHU216HW,2013-02-20 21:18:00,
2013-02-20 16:23:00,38.3,18.2,29.83,North,0,0.0,0.0,44,0.00,,,0.00,WUHU216HW,2013-02-20 21:23:00,
2013-02-20 16:28:00,38.2,18.0,29.83,North,0,0.0,0.0,44,0.00,,,0.00,WUHU216HW,2013-02-20 21:28:00,
2013-02-20 16:33:00,37.8,17.2,29.83,North,0,0.0,0.0,43,0.00,,,0.00,WUHU216HW,2013-02-20 21:33:00,
2013-02-20 16:38:00,37.6,17.6,29.83,North,0,0.0,0.0,44,0.00,,,0.00,WUHU216HW,2013-02-20 21:38:00,
2013-02-20 16:43:00,37.3,17.2,29.83,North,0,0.0,0.0,44,0.00,,,0.00,WUHU216HW,2013-02-20 21:43:00,
2013-02-20 16:49:00,37.1,17.1,29.83,North,0,0.0,0.0,44,0.00,,,0.00,WUHU216HW,2013-02-20 21:49:00,
2013-02-20 16:54:00,36.7,17.3,29.83,North,0,0.0,0.0,45,0.00,,,0.00,WUHU216HW,2013-02-20 21:54:00,
2013-02-20 16:59:00,36.4,16.9,29.83,North,0,0.0,0.0,45,0.00,,,0.00,WUHU216HW,2013-02-20 21:59:00,
2013-02-20 17:04:00,36.2,16.7,29.84,North,0,0.0,0.0,45,0.00,,,0.00,WUHU216HW,2013-02-20 22:04:00,
2013-02-20 17:09:00,35.8,16.5,29.84,North,0,0.0,0.0,45,0.00,,,0.00,WUHU216HW,2013-02-20 22:09:00,
2013-02-20 17:14:00,35.6,16.3,29.84,North,0,0.0,0.0,45,0.00,,,0.00,WUHU216HW,2013-02-20 22:14:00,
2013-02-20 17:19:00,35.3,16.5,29.85,North,0,0.0,0.0,46,0.00,,,0.00,WUHU216HW,2013-02-20 22:19:00,
2013-02-20 17:24:00,35.1,16.3,29.85,North,0,0.0,0.0,46,0.00,,,0.00,WUHU216HW,2013-02-20 22:24:00,
2013-02-20 17:29:00,34.9,16.1,29.85,North,0,0.0,0.0,46,0.00,,,0.00,WUHU216HW,2013-02-20 22:29:00,
2013-02-20 17:34:00,34.6,15.8,29.85,North,0,0.0,0.0,46,0.00,,,0.00,WUHU216HW,2013-02-20 22:34:00,
2013-02-20 17:39:00,34.2,15.9,29.86,North,0,0.0,0.0,47,0.00,,,0.00,WUHU216HW,2013-02-20 22:39:00,
2013-02-20 17:44:00,34.0,15.8,29.86,North,0,0.0,0.0,47,0.00,,,0.00,WUHU216HW,2013-02-20 22:44:00,
2013-02-20 17:49:00,33.7,15.9,29.86,North,0,0.0,0.0,48,0.00,,,0.00,WUHU216HW,2013-02-20 22:49:00,
2013-02-20 17:54:00,33.5,15.8,29.86,North,0,0.0,0.0,48,0.00,,,0.00,WUHU216HW,2013-02-20 22:54:00,
2013-02-20 17:59:00,33.3,15.6,29.87,North,0,0.0,0.0,48,0.00,,,0.00,WUHU216HW,2013-02-20 22:59:00,
2013-02-20 18:04:00,33.1,15.9,29.87,North,0,0.0,0.0,49,0.00,,,0.00,WUHU216HW,2013-02-20 23:04:00,
2013-02-20 18:09:00,32.8,15.7,29.87,North,0,0.0,0.0,49,0.00,,,0.00,WUHU216HW,2013-02-20 23:09:00,
2013-02-20 18:14:00,32.8,15.7,29.87,North,0,0.0,0.0,49,0.00,,,0.00,WUHU216HW,2013-02-20 23:14:00,
2013-02-20 18:19:00,32.6,15.5,29.87,North,0,0.0,0.0,49,0.00,,,0.00,WUHU216HW,2013-02-20 23:19:00,
2013-02-20 18:24:00,32.4,15.3,29.87,North,0,0.0,0.0,49,0.00,,,0.00,WUHU216HW,2013-02-20 23:24:00,
2013-02-20 18:29:00,32.2,15.7,29.88,North,0,0.0,0.0,50,0.00,,,0.00,WUHU216HW,2013-02-20 23:29:00,
2013-02-20 18:34:00,32.0,15.5,29.89,North,0,0.0,0.0,50,0.00,,,0.00,WUHU216HW,2013-02-20 23:34:00,
2013-02-20 18:39:00,32.0,15.5,29.90,North,0,0.0,0.0,50,0.00,,,0.00,WUHU216HW,2013-02-20 23:39:00,
2013-02-20 18:44:00,31.9,15.3,29.90,North,0,0.0,0.0,50,0.00,,,0.00,WUHU216HW,2013-02-20 23:44:00,
2013-02-20 18:49:00,31.7,14.7,29.90,North,0,0.0,0.0,49,0.00,,,0.00,WUHU216HW,2013-02-20 23:49:00,
2013-02-20 18:54:00,31.7,14.7,29.91,North,0,0.0,0.0,49,0.00,,,0.00,WUHU216HW,2013-02-20 23:54:00,
2013-02-20 18:59:00,31.5,14.5,29.92,North,0,0.0,0.0,49,0.00,,,0.00,WUHU216HW,2013-02-20 23:59:00,
2013-02-20 19:04:00,31.3,14.9,29.91,North,0,0.0,0.0,50,0.00,,,0.00,WUHU216HW,2013-02-21 00:04:00,
2013-02-20 19:09:00,31.1,14.7,29.92,North,0,0.0,0.0,50,0.00,,,0.00,WUHU216HW,2013-02-21 00:09:00,
2013-02-20 19:14:00,31.0,14.5,29.92,North,0,0.0,0.0,50,0.00,,,0.00,WUHU216HW,2013-02-21 00:14:00,
2013-02-20 19:19:00,30.6,14.2,29.93,North,0,0.0,0.0,50,0.00,,,0.00,WUHU216HW,2013-02-21 00:19:00,
2013-02-20 19:24:00,30.6,14.2,29.93,North,0,0.0,0.0,50,0.00,,,0.00,WUHU216HW,2013-02-21 00:24:00,
2013-02-20 19:30:00,30.4,14.1,29.92,North,0,0.0,0.0,50,0.00,,,0.00,WUHU216HW,2013-02-21 00:30:00,
2013-02-20 19:35:00,30.2,13.3,29.93,North,0,0.0,0.0,49,0.00,,,0.00,WUHU216HW,2013-02-21 00:35:00,
2013-02-20 19:40:00,30.1,13.7,29.93,North,0,0.0,0.0,50,0.00,,,0.00,WUHU216HW,2013-02-21 00:40:00,
2013-02-20 19:45:00,29.9,13.5,29.93,North,0,0.0,0.0,50,0.00,,,0.00,WUHU216HW,2013-02-21 00:45:00,
2013-02-20 19:50:00,29.9,13.5,29.92,North,0,0.0,0.0,50,0.00,,,0.00,WUHU216HW,2013-02-21 00:50:00,
2013-02-20 19:55:00,29.7,13.4,29.93,North,0,0.0,0.0,50,0.00,,,0.00,WUHU216HW,2013-02-21 00:55:00,
2013-02-20 20:00:00,29.5,12.7,29.93,North,0,0.0,0.0,49,0.00,,,0.00,WUHU216HW,2013-02-21 01:00:00,
2013-02-20 20:05:00,29.3,12.5,29.93,North,0,0.0,0.0,49,0.00,,,0.00,WUHU216HW,2013-02-21 01:05:00,
2013-02-20 20:10:00,29.3,12.1,29.93,North,0,0.0,0.0,48,0.00,,,0.00,WUHU216HW,2013-02-21 01:10:00,
2013-02-20 20:15:00,29.2,12.4,29.94,North,0,0.0,0.0,49,0.00,,,0.00,WUHU216HW,2013-02-21 01:15:00,
2013-02-20 20:20:00,29.2,11.9,29.93,North,0,0.0,0.0,48,0.00,,,0.00,WUHU216HW,2013-02-21 01:20:00,
2013-02-20 20:25:00,29.2,11.9,29.93,North,0,0.0,0.0,48,0.00,,,0.00,WUHU216HW,2013-02-21 01:25:00,
2013-02-20 20:30:00,29.0,11.7,29.94,North,0,0.0,0.0,48,0.00,,,0.00,WUHU216HW,2013-02-21 01:30:00,
2013-02-20 20:35:00,29.0,11.7,29.94,North,0,0.0,0.0,48,0.00,,,0.00,WUHU216HW,2013-02-21 01:35:00,
2013-02-20 20:40:00,28.8,11.5,29.94,North,0,0.0,0.0,48,0.00,,,0.00,WUHU216HW,2013-02-21 01:40:00,
2013-02-20 20:45:00,28.6,11.4,29.94,North,0,0.0,0.0,48,0.00,,,0.00,WUHU216HW,2013-02-21 01:45:00,
2013-02-20 20:51:00,28.6,11.9,29.95,North,0,0.0,0.0,49,0.00,,,0.00,WUHU216HW,2013-02-21 01:51:00,
2013-02-20 20:56:00,28.4,11.7,29.95,North,0,0.0,0.0,49,0.00,,,0.00,WUHU216HW,2013-02-21 01:56:00,
2013-02-20 21:01:00,28.4,11.3,29.95,North,0,0.0,0.0,48,0.00,,,0.00,WUHU216HW,2013-02-21 02:01:00,
2013-02-20 21:06:00,28.4,11.3,29.94,North,0,0.0,0.0,48,0.00,,,0.00,WUHU216HW,2013-02-21 02:06:00,
2013-02-20 21:11:00,28.3,11.5,29.94,North,0,0.0,0.0,49,0.00,,,0.00,WUHU216HW,2013-02-21 02:11:00,
2013-02-20 21:16:00,28.3,11.5,29.95,North,0,0.0,0.0,49,0.00,,,0.00,WUHU216HW,2013-02-21 02:16:00,
2013-02-20 21:21:00,27.9,11.2,29.94,North,0,0.0,0.0,49,0.00,,,0.00,WUHU216HW,2013-02-21 02:21:00,
2013-02-20 21:26:00,27.9,11.2,29.95,North,0,0.0,0.0,49,0.00,,,0.00,WUHU216HW,2013-02-21 02:26:00,
2013-02-20 21:31:00,27.9,11.2,29.95,North,0,0.0,0.0,49,0.00,,,0.00,WUHU216HW,2013-02-21 02:31:00,
2013-02-20 21:36:00,27.9,11.7,29.95,North,0,0.0,0.0,50,0.00,,,0.00,WUHU216HW,2013-02-21 02:36:00,
2013-02-20 21:41:00,27.7,11.5,29.95,North,0,0.0,0.0,50,0.00,,,0.00,WUHU216HW,2013-02-21 02:41:00,
2013-02-20 21:46:00,27.7,11.0,29.95,North,0,0.0,0.0,49,0.00,,,0.00,WUHU216HW,2013-02-21 02:46:00,
2013-02-20 21:51:00,27.7,11.5,29.96,North,0,0.0,0.0,50,0.00,,,0.00,WUHU216HW,2013-02-21 02:51:00,
2013-02-20 21:56:00,27.7,11.5,29.95,North,0,0.0,0.0,50,0.00,,,0.00,WUHU216HW,2013-02-21 02:56:00,
2013-02-20 22:01:00,27.5,11.3,29.95,North,0,0.0,0.0,50,0.00,,,0.00,WUHU216HW,2013-02-21 03:01:00,
2013-02-20 22:06:00,27.4,11.2,29.96,North,0,0.0,0.0,50,0.00,,,0.00,WUHU216HW,2013-02-21 03:06:00,
2013-02-20 22:11:00,27.4,11.2,29.95,North,0,0.0,0.0,50,0.00,,,0.00,WUHU216HW,2013-02-21 03:11:00,
2013-02-20 22:16:00,27.4,11.2,29.96,North,0,0.0,0.0,50,0.00,,,0.00,WUHU216HW,2013-02-21 03:16:00,
2013-02-20 22:21:00,27.2,11.4,29.96,North,0,0.0,0.0,51,0.00,,,0.00,WUHU216HW,2013-02-21 03:21:00,
2013-02-20 22:26:00,27.2,11.4,29.96,North,0,0.0,0.0,51,0.00,,,0.00,WUHU216HW,2013-02-21 03:26:00,
2013-02-20 22:31:00,27.0,11.3,29.96,North,0,0.0,0.0,51,0.00,,,0.00,WUHU216HW,2013-02-21 03:31:00,
2013-02-20 22:37:00,27.0,11.3,29.96,North,0,0.0,0.0,51,0.00,,,0.00,WUHU216HW,2013-02-21 03:37:00,
2013-02-20 22:42:00,27.0,11.3,29.95,North,0,0.0,0.0,51,0.00,,,0.00,WUHU216HW,2013-02-21 03:42:00,
2013-02-20 22:47:00,27.0,11.6,29.95,North,0,0.0,0.0,52,0.00,,,0.00,WUHU216HW,2013-02-21 03:47:00,
2013-02-20 22:52:00,27.0,11.6,29.96,North,0,0.0,0.0,52,0.00,,,0.00,WUHU216HW,2013-02-21 03:52:00,
2013-02-20 22:57:00,26.8,11.4,29.95,North,0,0.0,0.0,52,0.00,,,0.00,WUHU216HW,2013-02-21 03:57:00,
2013-02-20 23:02:00,26.8,11.4,29.95,North,0,0.0,0.0,52,0.00,,,0.00,WUHU216HW,2013-02-21 04:02:00,
2013-02-20 23:07:00,26.8,11.4,29.95,North,0,0.0,0.0,52,0.00,,,0.00,WUHU216HW,2013-02-21 04:07:00,
2013-02-20 23:12:00,26.8,11.4,29.95,North,0,0.0,0.0,52,0.00,,,0.00,WUHU216HW,2013-02-21 04:12:00,
2013-02-20 23:17:00,26.6,11.3,29.95,North,0,0.0,0.0,52,0.00,,,0.00,WUHU216HW,2013-02-21 04:17:00,
2013-02-20 23:22:00,26.6,11.7,29.95,North,0,0.0,0.0,53,0.00,,,0.00,WUHU216HW,2013-02-21 04:22:00,
2013-02-20 23:27:00,26.6,11.7,29.95,North,0,0.0,0.0,53,0.00,,,0.00,WUHU216HW,2013-02-21 04:27:00,
2013-02-20 23:32:00,26.6,11.7,29.95,North,0,0.0,0.0,53,0.00,,,0.00,WUHU216HW,2013-02-21 04:32:00,
2013-02-20 23:37:00,26.5,11.5,29.95,North,0,0.0,0.0,53,0.00,,,0.00,WUHU216HW,2013-02-21 04:37:00,
2013-02-20 23:42:00,26.3,11.3,29.95,North,0,0.0,0.0,53,0.00,,,0.00,WUHU216HW,2013-02-21 04:42:00,
2013-02-20 23:47:00,26.1,11.6,29.95,North,0,0.0,0.0,54,0.00,,,0.00,WUHU216HW,2013-02-21 04:47:00,
2013-02-20 23:52:00,26.3,11.8,29.95,North,0,0.0,0.0,54,0.00,,,0.00,WUHU216HW,2013-02-21 04:52:00,
2013-02-20 23:57:00,26.3,11.8,29.94,North,0,0.0,0.0,54,0.00,,,0.00,WUHU216HW,2013-02-21 04:57:00,